Location: Namasale
(1.5000°N, 32.6167°E)
Time: 16:45:00
(UTC+00:00)

Courier 1B - Pass Details

Date: 24 April 2021
Orbit: 962 x 1209 km, 28.3° (Epoch: 18 May)

Event Time Altitude Azimuth Distance (km) Brightness Sun altitude
Rises 19:41:14 0° 250° (WSW) 3,798 10.9 -55.4°
Enters shadow 19:41:20 - 249° (WSW) 3,774 10.9 -55.4°
Reaches altitude 10° 19:46:31 10° 216° (SW) 2,916 - -56.6°
Maximum altitude 19:48:29 11° 200° (SSW) 2,855 - -57.0°
Drops below altitude 10° 19:50:29 10° 184° (S) 2,969 - -57.5°
Sets 19:56:05 0° 151° (SSE) 3,999 - -58.7°
